Regional Weather Roundup
Issued by NWS Glasgow, MT

Home | Current Version | Previous Version | Text Only | Print | Product List | Glossary On
Versions: 1 2 3 4 5 6 7 8 9 10 11 12 13 14 15 16 17 18 19 20 21 22 23 24 25 26 27 28 29 30 31 32 33 34 35 36 37 38 39 40 41 42 43 44 45 46 47 48 49
000
ASUS45 KGGW 010815
RWRGGW
HOURLY WEATHER ROUNDUP FOR NORTHEAST MONTANA
NATIONAL WEATHER SERVICE GLASGOW MONTANA
100 AM MST SUN MAR 01 2015

NOTE: "FAIR" INDICATES FEW OR NO CLOUDS BELOW 12,000 FEET WITH NO
SIGNIFICANT WEATHER AND/OR OBSTRUCTIONS TO VISISBILITY.

NORTHEAST MONTANA


CITY           SKY/WX    TMP DP  RH WIND       PRES   REMARKS
GLASGOW        LGT SNOW  18  15  88 W7        30.17R FOG
PLENTYWOOD       N/A     16  14  92 NW3G15      N/A
WOLF POINT     CLOUDY    20  14  77 W13       30.18R
JORDAN           N/A     13  10  88 W6        30.17R
WINNETT          N/A     20  12  71 SW8G17      N/A
SIDNEY         MOCLDY    18   9  68 SW8       30.18S
GLENDIVE       CLOUDY    18  10  73 W10       30.16S
MALTA            N/A     19  18  95 W6          N/A
SCOBEY           N/A     16   4  59 W6        30.09R

FORT PECK REPORTS


CITY           SKY/WX    TMP DP  RH WIND       PRES   REMARKS
FORT PECK        N/A     18  17  96 W9          N/A
THE PINES        N/A     18  16  92 W6          N/A

SOUTHEAST MONTANA


CITY           SKY/WX    TMP DP  RH WIND       PRES   REMARKS
BILLINGS       PTCLDY    15   9  76 SW6       30.20R
MILES CITY     PTCLDY    12   7  80 W6        30.20S
BAKER          PTCLDY    13   8  81 W13       30.15S WCI  -2
LIVINGSTON     CLEAR     14   1  56 W9        30.18R

CENTRAL MONTANA


CITY           SKY/WX    TMP DP  RH WIND       PRES   REMARKS
HAVRE          MOCLDY    13  11  92 W7        30.24R
LEWISTOWN      CLOUDY    17   8  67 NW13      30.17R
GREAT FALLS    CLEAR     10   5  80 SW8       30.23R
CUT BANK       CLOUDY    14   9  80 W7        30.21S
HELENA         MOCLDY    13   4  67 CALM      30.26
BUTTE          CLEAR      4  -2  76 SE6       30.18R
BOZEMAN        CLEAR      7   2  80 CALM      30.23R

WESTERN MONTANA


CITY           SKY/WX    TMP DP  RH WIND       PRES   REMARKS
MISSOULA       CLEAR     16   8  71 NW3       30.26R
KALISPELL      NOT AVBL

NORTH DAKOTA


CITY           SKY/WX    TMP DP  RH WIND       PRES   REMARKS
WILLISTON      CLOUDY    11   4  73 SW6       30.14S
DICKINSON      PTCLDY    11   3  70 W14       30.11S WCI  -5
MINOT          CLOUDY     7  -1  70 SW12      30.11S WCI  -8
BISMARCK       CLEAR      5   0  79 SW8       30.19F

SOUTHERN SASKATCHEWAN


CITY           SKY/WX    TMP DP  RH WIND       PRES   REMARKS
REGINA         FLURRIES   5   3  92 NW6       30.11R
ESTEVAN        FLURRIES  10   9  92 W12       30.09R WCI  -4
SWIFT CURRENT  FLURRIES  12  12 100 W10       30.11S WCI  -1



USA.gov is the U.S. government's official web portal to all federal, state and local government web resources and services.